Aérodrome :
LOGIN :

S'inscrire | Disclaimer

   EN    FR    IT 

 










Légende :    VFR   VFR Marginal   IFR   IFR Intensif   IFR Très Intensif
Visi : 
Plafond : 
>= 8 km
>= 3000ft
5 à 8 km
1000 à 3000 ft
1500m à 5 km
500 à 1000 ft
800 à 1500m
200 à 500 ft
< 800m
< 200 ft
Symboles :   Orages  Brouillard  Fortes neiges  Fortes précipitations  Vent > 20 kt
SIGMETs :   Divers  Orages  Givrage  Turbulence  Onde Orograph.  Cendres Volcan.






- Altitude de l'aérodrome : 120 ft
- Code IATA : MME


EGNV - Durham Tees valley

DERNIER METAR :
  • 261720Z 30008KT 260V340 9999 FEW045 21/06 Q1035

METARs EXPIRÉS :
  • 261650Z 30007KT 240V340 9999 FEW045 21/06 Q1035
  • 261620Z 29008KT 270V330 9999 FEW045 21/07 Q1035
  • 261550Z 30009KT 250V350 9999 FEW045 21/07 Q1035
  • 261520Z 25006KT 200V310 9999 FEW045 21/07 Q1035

TAF TAF EGNV
Valide du 26 à 15h jusqu'au 26 à 19h UTC


261402Z 2615/2619 26011KT 9999 SCT040
PROB30 2615/2619 33010KT
ATIS : +44 9012 018 111



MET'MAP, la Météo Aéronautique d'un coup d'oeil ! - Copyright ORBIFLY Décembre 2007 - Disclaimer

ORBIFLY MET'MAP TEAM :

Programmation & Développement : Alexandra Zaïnal
Sur une idée originale de : Baudouin d'Aumeries
Assistance à la programmation : Marc-Olivier Méhu
Soutien technique & logistique : Manuel Goepfert

Contact : metmap@orbifly.com




SOURCES & CREDITS :

   NOAA